Temp
10 10 10 10 10 9 9 8 8 8 8 8 8 8 8 8 8 8 8 9 8 8 8 8 8 8 8 8 7 7 7 7
10 9 10 10 10 9 9 9 8 8 8 8 8 8 8 8 7 8 8 8 8 8 8 8 8 8 8 7 7 7 7 7
9 9 9 10 10 9 9 9 9 8 8 8 8 8 8 7 7 7 7 8 8 8 8 8 8 8 8 8 8 7 7 7
9 9 9 9 9 9 9 9 8 8 8 8 8 8 7 7 8 7 7 7 7 8 7 7 7 7 7 7 7 7 7 7
9 9 9 9 8 9 9 9 9 8 8 8 8 8 8 7 7 7 7 7 7 7 7 7 7 7 7 7 7 7 6 6
9 8 8 8 8 8 8 9 9 8 8 8 8 8 8 7 6 7 7 7 7 7 7 7 7 7 7 7 7 7 7 7
9 9 8 8 8 8 8 8 8 8 8 8 8 8 8 6 6 6 7 7 7 7 7 7 7 7 7 7 7 7 7 7
9 9 8 8 7 7 8 8 8 8 8 8 8 8 8 8 7 6 6 7 7 7 7 7 7 7 7 7 7 7 7 7
9 9 9 8 8 7 7 8 8 8 8 8 8 8 8 8 7 7 7 7 7 7 7 7 7 7 7 7 7 7 7 6
9 9 9 8 8 7 7 7 7 7 7 7 7 7 7 7 7 7 7 7 7 7 7 7 7 7 7 7 7 7 7 7
9 9 9 8 8 7 7 7 7 7 6 6 6 6 6 7 7 7 8 8 8 7 7 7 7 7 6 6 6 6 6 7
9 9 9 8 8 8 7 7 7 7 6 6 6 6 6 7 7 7 7 6 6 6 6 6 6 6 6 6 6 6 6 5
9 9 8 8 8 8 8 7 7 7 7 7 7 7 7 7 6 6 6 6 6 6 5 5 5 5 5 6 6 6 5 5
9 9 8 8 8 8 7 7 7 7 6 6 6 6 6 6 6 6 6 5 5 5 5 5 5 5 5 5 6 5 5 4
9 9 8 8 8 7 7 7 7 6 6 6 6 5 5 5 5 5 4 5 5 5 5 5 5 4 4 3 4 4 3 3
8 8 8 8 7 7 7 6 6 6 5 5 5 5 4 4 4 4 4 5 5 5 5 4 4 4 3 2 2 1 2 2
8 8 8 8 7 6 6 6 5 4 4 4 4 4 4 4 4 4 4 5 5 5 4 3 3 3 2 1 1 0 0 -0
8 7 7 6 5 5 5 5 4 4 4 3 3 3 4 4 4 4 4 4 4 4 3 3 2 2 1 1 -0 -1 -1 -3
7 6 5 5 4 4 4 4 3 3 3 3 3 3 3 4 4 4 4 4 3 3 3 2 1 1 -0 -1 -2 -2 -3 -3
6 5 4 4 4 3 3 3 3 3 3 3 3 3 3 3 3 4 3 3 3 2 1 1 -0 -1 -1 -2 -2 -2 -3 -3
Height
3166 3165 3164 3164 3164 3164 3165 3166 3168 3169 3171 3173 3173 3174 3176 3176 3177 3178 3179 3180 3179 3179 3179 3179 3179 3179 3180 3180 3179 3178 3178 3177
3164 3163 3162 3161 3160 3160 3161 3162 3164 3166 3168 3169 3170 3171 3173 3174 3175 3175 3175 3176 3176 3176 3176 3176 3176 3176 3176 3176 3176 3176 3175 3174
3162 3161 3161 3159 3157 3157 3158 3159 3160 3163 3164 3166 3167 3168 3170 3171 3171 3172 3171 3172 3174 3173 3173 3173 3173 3173 3173 3173 3172 3172 3172 3172
3159 3158 3158 3157 3156 3155 3156 3156 3158 3160 3162 3163 3165 3165 3166 3166 3168 3168 3168 3167 3168 3169 3169 3169 3170 3170 3169 3169 3169 3169 3169 3169
3155 3155 3155 3155 3154 3153 3153 3154 3155 3157 3159 3160 3161 3162 3162 3162 3163 3163 3163 3163 3163 3164 3165 3165 3165 3166 3166 3166 3166 3165 3165 3164
3152 3152 3152 3152 3152 3151 3151 3152 3153 3154 3155 3156 3157 3157 3158 3158 3158 3158 3159 3159 3159 3159 3159 3160 3161 3161 3162 3162 3161 3161 3161 3160
3148 3149 3149 3149 3149 3149 3149 3150 3150 3151 3151 3152 3153 3154 3154 3154 3154 3154 3154 3154 3155 3155 3155 3156 3156 3157 3157 3156 3155 3155 3154 3154
3145 3145 3145 3145 3145 3145 3146 3147 3148 3147 3148 3148 3149 3149 3150 3150 3150 3150 3150 3150 3150 3151 3151 3151 3151 3150 3150 3150 3149 3149 3149 3148
3141 3142 3142 3142 3142 3141 3142 3143 3145 3144 3144 3144 3145 3145 3146 3146 3147 3147 3147 3147 3146 3146 3145 3145 3145 3145 3144 3143 3142 3141 3140 3140
3137 3137 3138 3138 3138 3138 3138 3140 3140 3140 3141 3141 3141 3141 3141 3142 3143 3143 3143 3143 3142 3142 3141 3140 3139 3138 3138 3137 3135 3135 3134 3133
3132 3133 3134 3133 3133 3134 3135 3135 3136 3136 3137 3137 3137 3138 3138 3138 3139 3139 3139 3138 3138 3136 3135 3133 3132 3131 3129 3127 3126 3124 3123 3122
3126 3128 3129 3129 3129 3130 3130 3130 3131 3131 3132 3133 3133 3133 3134 3135 3135 3134 3133 3133 3132 3130 3128 3126 3124 3121 3118 3116 3115 3113 3112 3109
3122 3122 3124 3124 3124 3124 3125 3125 3126 3126 3127 3127 3128 3129 3129 3129 3128 3128 3127 3125 3124 3123 3121 3119 3116 3113 3108 3107 3101 3099 3096 3097
3115 3117 3117 3118 3119 3119 3120 3120 3120 3120 3121 3122 3122 3122 3123 3122 3122 3121 3120 3117 3116 3114 3112 3108 3105 3101 3097 3093 3085 3084 3082 3081
3109 3109 3111 3112 3113 3113 3113 3114 3115 3115 3116 3116 3116 3116 3116 3116 3115 3113 3112 3109 3106 3104 3101 3096 3090 3087 3083 3079 3074 3067 3065 3059
3100 3102 3102 3103 3105 3107 3106 3108 3108 3108 3109 3109 3109 3109 3109 3109 3108 3105 3103 3100 3096 3092 3087 3082 3078 3073 3069 3064 3056 3057 3051 3044
3091 3092 3094 3094 3096 3098 3098 3099 3101 3102 3102 3103 3102 3102 3103 3101 3098 3096 3093 3090 3085 3081 3076 3070 3065 3060 3055 3050 3045 3037 3036 3034
3083 3082 3084 3086 3088 3090 3091 3093 3094 3095 3095 3096 3095 3095 3094 3092 3089 3086 3082 3078 3073 3068 3063 3058 3053 3047 3041 3036 3031 3026 3022 3015
3073 3074 3076 3078 3081 3084 3085 3086 3087 3088 3088 3088 3088 3086 3084 3082 3079 3074 3069 3064 3059 3053 3046 3041 3037 3030 3027 3021 3017 3012 3010 3005
3065 3066 3069 3072 3074 3077 3078 3080 3080 3081 3081 3080 3078 3076 3073 3070 3066 3062 3058 3053 3047 3041 3034 3028 3022 3016 3011 3007 3001 2998 2996 2996
Wind_Speed
11 7 5 5 9 13 13 16 18 17 15 14 14 14 12 11 11 9 8 7 8 8 8 8 7 6 6 6 6 7 7 7
14 9 7 8 10 13 15 17 19 19 18 17 16 16 14 13 12 11 13 11 11 11 10 10 10 9 8 8 8 8 9 9
14 11 9 10 11 14 16 17 20 21 20 19 17 16 16 15 15 15 16 15 14 14 14 13 14 13 13 12 12 12 12 13
14 13 11 11 10 13 14 16 19 21 20 19 17 17 18 19 17 18 18 18 18 17 18 18 17 17 17 17 16 16 16 17
16 13 12 8 7 11 14 15 17 19 20 20 19 19 20 21 20 21 21 21 22 22 21 21 21 21 21 21 21 21 21 21
18 16 14 10 8 9 10 14 16 18 21 22 22 23 22 23 21 24 24 24 25 25 26 25 24 25 25 25 26 26 26 27
19 18 16 16 13 11 10 11 13 17 20 21 23 25 26 23 22 23 27 28 27 27 28 28 29 29 29 29 29 30 31 32
18 17 17 18 17 16 14 12 13 13 16 21 24 25 27 28 27 25 26 27 27 27 27 29 29 29 29 30 32 33 33 35
17 16 16 18 20 22 17 14 12 13 16 18 21 23 25 27 26 26 24 26 25 25 25 25 26 27 28 29 30 32 33 35
17 13 13 15 19 23 21 16 15 16 16 18 20 23 24 22 22 21 20 20 20 21 23 25 25 27 28 31 33 35 36 38
15 13 12 13 17 20 19 17 16 18 18 18 18 18 18 17 15 15 17 18 20 23 26 30 33 35 38 39 40 41 43 45
18 15 15 15 18 20 19 19 18 18 18 19 19 18 18 18 19 22 23 24 27 29 31 34 38 42 46 48 49 51 52 55
22 19 19 19 19 22 23 22 22 21 20 19 20 21 22 24 26 28 29 32 33 35 38 41 44 47 50 52 56 57 59 57
24 24 24 24 24 25 28 30 29 27 24 24 24 26 27 29 31 32 34 36 37 39 42 46 49 51 54 57 62 61 59 55
29 29 28 29 29 31 34 35 35 33 31 30 30 30 30 31 32 34 36 38 42 45 48 50 53 53 54 54 56 59 57 61
35 34 33 32 32 33 36 38 40 35 35 34 32 30 30 32 34 37 40 44 48 50 52 54 55 57 54 55 59 54 56 61
40 38 36 35 32 33 36 39 37 38 36 33 31 31 33 36 40 43 46 50 53 55 57 55 55 56 56 56 57 62 61 60
37 38 34 32 31 33 36 37 36 35 33 32 34 37 39 40 43 47 51 54 55 56 56 55 54 54 54 54 55 57 59 60
35 33 30 28 30 34 35 35 34 34 36 38 38 39 42 44 47 50 54 55 55 55 55 54 53 52 50 50 51 54 53 52
32 31 30 30 31 34 34 35 36 36 36 38 39 41 44 46 51 54 52 52 51 51 52 52 51 51 52 51 54 56 53 50
Wind_Direction
290 304 298 286 241 234 231 233 231 231 236 240 242 247 248 255 266 272 277 277 280 284 291 296 298 303 299 299 303 309 314 316
271 285 294 287 247 233 231 228 227 226 230 234 237 243 247 251 260 264 266 262 263 266 270 273 278 280 278 276 276 277 284 283
263 274 288 288 254 235 232 228 226 224 227 230 235 242 247 249 250 254 260 265 264 266 267 267 269 271 272 274 272 268 265 269
252 265 279 287 251 234 232 230 229 228 230 233 237 241 245 248 248 253 257 263 263 260 264 267 267 270 271 272 272 271 269 266
241 250 268 278 260 236 230 229 230 231 234 235 236 239 243 249 249 252 253 256 262 264 262 264 268 269 270 273 275 274 272 269
238 248 260 262 270 250 236 233 229 232 236 236 236 236 240 244 249 249 253 255 260 265 270 272 269 269 271 272 274 275 275 275
237 246 252 255 257 262 247 242 237 237 239 239 239 239 237 241 246 252 256 260 264 269 272 274 278 281 281 279 275 273 274 275
237 237 242 249 249 250 250 251 250 244 244 244 244 242 243 245 248 253 259 268 273 274 276 277 279 281 282 283 282 282 281 279
222 229 238 241 244 247 254 258 258 252 247 245 246 247 249 251 254 262 265 268 275 279 282 283 284 286 287 286 284 283 282 281
218 230 233 230 234 244 257 263 259 255 255 252 256 253 251 252 254 257 268 274 280 286 290 290 291 290 290 291 291 289 287 285
224 233 250 239 230 240 251 256 260 264 262 263 264 261 256 251 250 255 266 276 283 287 291 294 295 296 295 291 288 283 280 280
232 243 255 253 241 242 244 247 252 259 263 263 260 250 248 248 259 266 276 283 286 288 290 291 292 294 291 289 289 286 286 282
238 246 254 255 258 252 247 247 249 253 255 258 256 254 253 257 265 273 277 281 285 290 292 293 290 289 287 288 285 285 283 283
244 250 254 254 256 254 249 248 249 254 257 257 256 253 252 256 265 273 280 286 290 291 291 290 290 290 289 290 290 289 288 281
248 253 256 258 253 250 247 247 249 251 252 255 257 256 258 264 272 279 284 288 291 292 293 293 294 293 293 291 291 292 291 290
252 253 255 255 254 249 248 247 247 249 254 257 255 257 264 272 278 283 286 289 292 295 298 299 298 299 296 293 292 286 284 285
260 259 255 254 251 249 245 246 242 246 252 254 259 265 270 275 280 283 288 292 297 299 300 301 301 300 296 292 287 287 284 277
254 258 252 248 246 243 239 238 241 245 249 254 259 266 273 279 284 289 294 298 300 301 301 300 298 294 291 287 285 282 281 282
256 254 252 247 242 236 235 238 242 247 254 261 268 272 278 285 291 297 302 302 302 302 301 300 297 293 291 288 284 281 280 278
254 252 247 241 237 234 237 243 248 256 261 266 273 281 290 295 301 303 302 303 302 301 299 298 296 293 289 285 283 280 276 273